Back to catalog

STARLINK-3747

AliveCommunicationsVLEO
NORAD 52306·PAYLOAD·🇺🇸 United States

Launched Apr 21, 2022 from Cape Canaveral Space Force Station

Loading…

Next Passes (next 24 hours)

TLE

FreshSource: CelesTrak SupGP

Epoch: Sep 14, 2026, 13:21 UTC

1 52306C 22041AX  26257.55673611  .00041802  00000+0  12350-2 0  2575
2 52306  53.1592 309.1592 0001410  59.7226  71.7468 15.34370125    14

Track STARLINK-3747 in real time with AllMySat

Download on the App Store